Weather in Mendeleevo

Russia / Perm Krai     58°10′10″N   54°59′38″E
temp.,
°C
wind,
m/s
gust,
m/s
humid.,
%
clouds,
%
prec.,
mm/h
press.,
hPa
HPBL,
m
17 may, tue
tue1723:00+10ene279385 1.3 996249
02:00+9ne1195100 0.6 99727
05:00+8n1297100 0.8 99649
08:00+9se1293100 0.0 996190
11:00+10sse1290100 0.1 997315
14:00+10wsw2490100 0.6 998364
17:00+13sw357295 1.1 9981024
20:00+11w358344 0.5 998402
18 may, wed
wed1823:00+8w239896 0.8 99978
02:00+9nw2597100 0.1 999291
05:00+7n3695100 0.1 999396
08:00+6nne3595100 0.1 1000354
11:00+6n2393100 1.5 1000322
14:00+8nw3286100 0.4 1000461
17:00+5nnw3494100 0.4 1001363
20:00+3nnw3597100 0.1 1002382
19 may, thu
thu1923:00+3nnw3797100 0.1 1002465
02:00+4nw3798100 0.1 1002598
05:00+3wnw379477 0.2 1003346
08:00+4nw357991 0.0 1004445
11:00+7wnw4659100 0.1 10041666
14:00+7w4560100 0.3 10051288
17:00+8wnw356199 0.8 10051305
20:00+6wnw3576100 0.8 1006648
20 may, fri
fri2023:00+3w259599 0.9 1006133
02:00+1w269840 0.0 1006143
05:00+2w3595100 0.2 1006512
08:00+3wnw3589100 0.1 1006618
11:00+4w4576100 0.1 10071010
14:00+5w357290 0.1 1006889
17:00+7nw456599 0.4 10061231
20:00+3nw4795100 0.2 1006448
21 may, sat
sat2123:00+2nw4998100 0.9 1006456
02:00+2nnw41198100 1.6 1005694
05:00+2nnw41098100 2.8 1005731
08:00+2nnw4990100 0.6 1006793
11:00+4nnw5773100 0.7 10061214
14:00+4nnw5770100 0.1 10071172
17:00+4nnw4675100 0.3 1007988
20:00+3n3683100 0.2 1008767